Temperature
23 20 19 20 20 21 22 22 21 22 23 22 21 21 21 21 20 20 19 19 19 19 19 19 19 18 18 18 18 18 17 17 16 16 16 16 16 15 15 15 14 14 14 14
20 20 21 22 22 23 22 22 21 22 23 22 21 21 20 20 20 20 19 19 19 19 18 18 18 18 18 18 17 17 17 17 16 16 16 16 15 15 14 14 14 14 14 14
21 21 23 24 23 23 22 22 22 22 22 22 21 20 20 20 20 20 20 19 19 19 18 18 18 18 18 17 17 17 17 16 16 16 15 15 15 14 14 14 14 14 13 13
21 22 24 24 23 23 21 22 23 22 21 19 20 18 19 19 19 19 19 19 18 18 18 18 18 17 17 17 17 17 16 16 16 15 15 15 15 14 14 14 13 13 13 13
22 23 23 23 24 24 22 23 23 22 20 19 19 18 18 18 19 18 18 18 18 18 18 18 18 17 17 17 17 16 16 16 15 15 15 15 14 14 14 13 13 13 13 13
22 23 23 24 24 24 23 22 20 19 17 18 19 19 18 18 19 19 18 18 18 18 18 18 18 17 17 16 16 16 16 15 15 15 15 14 14 14 13 13 13 13 12 12
21 22 23 24 23 22 21 19 18 18 17 17 18 19 18 19 19 19 18 18 18 18 18 17 17 17 16 16 16 15 15 15 15 14 14 14 14 13 13 13 13 12 12 12
20 20 22 23 23 22 21 19 18 18 17 17 18 18 18 19 19 19 19 18 17 17 17 17 16 16 16 16 16 15 15 15 14 14 14 13 13 13 13 12 12 12 12 12
20 21 23 24 24 22 21 19 18 17 17 17 17 18 18 18 18 17 17 17 16 17 16 16 16 16 16 16 15 15 15 14 14 14 13 13 13 12 12 12 12 11 11 11
20 21 22 23 23 22 21 20 17 16 17 17 18 18 17 17 17 17 16 16 16 16 16 16 16 16 16 15 15 15 14 14 14 13 13 13 12 12 12 11 11 11 11 11
20 19 20 21 22 21 20 19 17 15 16 16 16 17 18 17 17 16 16 16 16 16 16 16 16 15 15 15 15 14 14 14 14 13 13 12 12 12 11 11 11 11 11 11
19 17 18 20 21 21 20 19 17 17 16 16 16 16 18 17 17 16 16 16 16 16 16 16 15 15 15 15 14 14 14 13 13 13 12 12 12 12 11 11 11 11 11 10
19 17 17 18 19 19 19 19 18 16 15 15 16 17 18 17 16 17 16 16 16 16 15 15 15 15 14 14 14 14 13 13 13 12 12 12 12 11 11 11 11 11 11 10
18 16 17 17 18 18 19 19 19 17 16 16 17 17 17 16 16 15 16 16 15 15 15 15 14 14 14 14 14 13 13 13 12 12 12 12 11 11 11 11 11 11 10 10
17 16 17 18 19 19 20 20 20 18 18 17 17 17 17 16 16 15 15 15 15 15 14 14 14 14 14 14 13 13 13 12 12 12 12 12 11 11 11 11 10 10 10 10
15 16 17 18 19 19 19 20 20 20 19 18 18 17 17 16 16 15 15 15 14 14 14 14 14 14 14 13 13 13 13 12 12 12 12 11 11 11 11 11 10 10 10 10
15 15 16 16 18 18 18 19 19 19 19 18 17 17 16 15 15 15 15 15 15 15 14 14 14 14 14 13 13 13 12 12 12 12 12 11 11 11 11 11 11 10 10 10
14 14 14 15 16 17 18 19 20 19 19 18 17 16 16 16 16 16 16 16 15 15 15 14 14 14 14 13 13 13 12 12 12 12 12 11 11 11 11 11 11 11 10 10
15 15 14 14 15 17 19 19 19 18 18 17 17 16 16 16 16 15 16 16 16 15 15 14 14 14 13 13 13 12 12 12 12 12 12 12 11 11 11 11 11 11 11 10
15 14 14 15 16 16 18 19 20 18 17 17 17 16 16 15 14 14 16 16 15 15 15 14 14 13 13 13 13 12 12 12 12 12 12 12 11 11 11 11 11 11 11 10
15 14 15 15 15 16 18 19 19 17 16 18 17 17 16 15 15 16 16 16 15 15 14 14 14 13 13 13 12 12 12 12 12 12 12 11 11 11 11 11 11 11 11 11
14 14 14 14 15 16 18 18 17 16 18 18 18 17 17 17 16 16 16 15 15 15 14 14 13 13 13 12 12 12 12 12 12 12 11 11 11 11 11 11 11 11 11 11
14 14 13 14 15 16 18 18 18 19 18 18 18 17 17 16 16 15 15 15 15 14 14 13 13 13 13 12 12 12 12 12 11 11 11 11 11 11 11 11 11 11 11 11
14 14 13 14 15 16 17 18 18 18 18 18 18 17 17 16 15 15 15 15 14 14 14 13 13 13 12 12 12 12 12 12 11 11 11 11 11 11 11 11 11 11 11 11
13 13 13 13 14 16 17 17 17 18 18 18 17 17 17 16 15 15 15 14 14 14 13 13 13 13 12 12 12 12 12 12 11 11 11 11 11 11 11 12 11 12 12 12
13 13 13 13 14 14 15 16 17 17 17 17 17 16 16 16 15 15 15 14 14 14 13 13 13 12 12 12 12 12 12 12 12 11 11 11 12 12 12 12 12 12 12 12
Wind_Speed
3 3 4 8 7 7 5 4 5 7 4 0 2 5 6 6 7 7 8 9 10 10 8 8 9 9 8 7 7 7 6 6 5 4 4 3 2 2 2 2 3 3 3 3
5 6 12 8 6 5 4 4 4 5 4 0 1 3 4 4 6 7 8 7 9 8 7 8 8 7 7 7 7 6 6 6 6 4 4 3 3 2 2 1 2 3 3 3
7 9 7 4 4 4 4 3 4 4 3 2 1 3 2 2 2 5 7 7 8 11 11 9 9 8 7 7 8 8 6 6 6 5 4 3 3 3 2 1 0 1 2 2
5 7 5 3 5 3 4 5 4 3 1 3 1 3 6 4 2 4 6 7 8 9 10 9 8 9 9 8 8 7 6 6 5 6 5 5 4 3 2 2 1 0 1 2
6 5 4 5 5 3 5 5 2 2 1 1 2 2 6 2 4 6 8 9 9 9 9 9 8 8 8 7 7 7 6 5 5 5 6 6 4 3 2 2 2 1 0 1
7 5 3 4 4 2 0 4 6 5 5 2 4 3 6 4 7 8 8 8 8 8 9 8 6 6 6 6 6 6 7 5 5 5 6 6 6 5 4 3 2 1 0 1
7 7 4 2 2 4 5 6 5 6 4 5 4 2 6 6 5 6 8 8 7 7 8 8 8 7 7 7 7 6 6 5 4 5 5 5 5 5 5 4 3 2 1 0
3 7 5 2 2 2 1 6 5 3 4 5 4 3 5 3 1 3 6 7 7 7 7 8 9 8 8 7 7 7 7 5 4 4 3 3 4 3 3 3 3 3 2 2
3 6 5 4 2 4 2 2 6 5 2 2 4 4 5 3 4 4 6 6 7 7 8 8 8 7 7 7 7 7 7 5 4 4 4 3 3 3 3 2 2 2 2 2
5 4 5 4 3 3 4 4 5 4 1 3 5 4 3 3 2 3 5 6 7 7 7 7 7 7 6 6 5 6 6 5 4 4 3 3 3 3 3 2 2 1 2 2
1 2 5 3 0 2 2 2 3 3 4 4 4 6 5 6 6 5 6 7 8 8 8 7 6 6 6 6 6 5 5 5 4 4 4 4 3 3 3 2 2 2 2 2
1 2 2 5 4 2 3 4 5 3 3 4 3 7 4 5 6 7 7 7 8 8 7 7 7 6 6 6 6 5 5 5 4 4 4 3 3 3 2 2 2 2 1 1
2 3 2 7 6 4 2 1 2 4 3 3 4 6 1 2 4 5 7 7 7 8 8 7 7 7 6 6 5 5 5 5 4 4 4 3 3 3 3 3 3 2 2 2
3 2 4 5 7 5 5 5 2 2 3 4 7 6 3 4 5 5 6 7 7 8 8 7 7 7 6 6 5 5 4 4 4 4 4 4 4 4 4 3 3 3 2 2
4 1 3 6 7 5 5 6 5 5 6 7 8 7 8 9 9 8 7 7 7 8 7 8 7 6 6 6 5 5 5 5 5 4 4 5 4 4 3 3 3 2 2 2
2 2 3 5 6 5 6 7 6 6 5 5 3 4 4 5 5 6 7 8 8 8 8 8 8 7 7 7 7 6 5 5 5 5 4 4 4 4 3 3 3 2 2 1
2 2 1 4 6 5 6 6 5 4 3 4 5 6 4 5 8 10 9 9 9 9 9 8 8 8 8 7 7 7 6 5 5 4 4 4 4 4 3 3 3 3 3 2
6 3 2 2 2 5 8 4 2 2 1 2 4 5 7 7 7 6 7 8 8 8 8 8 7 6 6 6 6 6 5 5 5 4 4 4 3 4 4 3 3 3 2 2
8 6 3 2 3 6 5 4 2 2 2 0 5 6 4 3 3 1 5 6 7 8 8 7 7 6 6 6 6 6 5 5 5 5 4 4 4 4 3 3 3 2 2 2
3 4 3 3 3 5 5 4 1 4 1 1 5 7 6 5 2 5 5 5 5 6 6 6 6 5 6 5 5 6 5 5 5 5 5 4 4 5 4 4 3 2 2 3
2 0 3 4 5 6 6 3 3 2 6 4 6 8 7 6 6 5 5 5 5 6 7 7 7 6 6 6 6 6 5 5 5 5 4 4 4 4 4 3 3 2 2 2
3 2 3 4 4 7 4 1 3 6 3 3 5 6 5 4 3 4 6 7 7 7 7 7 7 6 5 6 7 6 5 5 4 4 4 4 4 4 3 2 2 2 2 2
3 3 4 6 7 6 3 2 3 4 2 1 3 4 5 5 5 5 6 6 6 7 7 6 7 6 5 6 7 7 6 5 4 3 3 4 3 2 2 3 3 2 2 2
4 2 1 3 5 5 4 1 1 1 2 2 3 4 5 5 6 6 7 6 7 6 7 6 7 7 6 6 6 6 6 5 4 4 3 2 2 2 2 2 3 3 3 3
6 3 3 5 5 5 5 3 2 2 1 2 2 3 5 7 6 5 6 7 7 6 6 7 7 7 6 6 5 5 5 5 5 4 3 2 2 2 2 3 3 4 5 6
6 6 5 7 6 3 6 6 3 1 1 2 2 2 4 6 6 6 6 6 7 7 6 6 6 6 6 6 5 5 5 5 5 3 3 2 2 2 2 3 3 5 6 7
Wind_Direction
317 51 264 250 222 212 243 268 281 275 278 88 213 231 224 202 182 179 180 176 174 176 172 161 163 163 159 157 150 149 148 152 145 141 147 146 151 146 129 125 120 119 112 108
360 279 248 246 251 251 259 280 285 291 292 169 220 240 231 189 180 177 177 180 172 163 158 161 163 163 162 159 158 155 153 160 158 161 161 157 148 145 145 135 100 102 99 91
236 252 256 243 266 282 287 232 233 254 315 0 66 320 268 225 182 175 169 171 169 171 167 167 167 165 162 167 169 169 165 164 159 148 125 113 93 76 77 82 102 103 100 87
257 265 277 276 269 240 266 243 234 247 2 289 137 260 273 223 218 205 182 169 174 173 169 167 167 172 175 181 171 162 161 155 154 147 141 141 143 149 174 166 167 150 105 111
281 289 306 284 267 233 232 249 272 265 156 351 342 169 276 236 218 220 202 183 179 175 171 171 172 174 173 165 155 152 148 149 151 144 147 142 143 155 146 126 124 111 6 80
262 269 237 239 271 248 302 26 15 33 64 353 260 190 269 241 222 213 200 189 180 173 170 165 158 147 139 134 134 138 141 148 148 144 144 148 152 155 147 148 148 149 80 12
314 313 294 232 332 352 55 64 22 357 3 263 281 228 252 257 240 201 184 179 175 166 161 154 152 150 144 144 144 148 143 139 148 145 146 151 156 157 163 168 169 164 165 191
309 302 299 294 177 201 192 122 145 223 250 280 313 252 262 285 122 121 141 149 150 148 148 150 153 153 153 154 154 157 149 149 148 142 148 151 149 153 160 167 167 178 193 207
216 268 290 297 264 151 136 159 166 148 268 282 281 288 304 3 62 95 109 125 148 151 148 147 145 146 150 156 159 160 155 152 157 157 151 145 140 142 155 169 167 186 213 215
191 255 294 308 21 20 142 154 91 106 176 276 291 284 258 257 223 155 145 149 151 146 142 142 141 142 143 150 152 153 156 159 164 157 157 144 143 151 161 154 164 208 235 225
114 203 299 348 181 235 25 44 103 129 163 176 270 274 235 213 190 177 171 159 154 155 153 147 145 145 140 142 149 154 159 156 152 149 151 147 154 157 158 169 192 222 233 209
12 122 270 275 273 204 153 166 141 155 232 183 215 268 258 191 179 163 155 153 155 153 146 144 145 143 142 149 156 157 157 158 164 155 147 158 168 158 165 191 206 212 222 219
18 86 10 338 342 1 20 299 161 146 145 179 204 262 268 143 141 142 145 153 153 147 143 145 145 151 159 159 159 161 162 165 164 157 153 157 169 164 184 203 210 214 214 230
52 110 176 216 242 263 282 290 264 145 185 220 226 238 231 187 173 165 156 151 154 153 154 153 156 165 164 163 164 163 169 169 166 163 161 167 185 189 196 204 213 222 214 208
61 207 244 255 256 263 280 284 269 246 221 214 234 219 216 198 187 176 161 153 153 157 159 162 164 169 167 167 168 169 172 175 173 168 171 188 195 195 196 206 218 222 208 197
35 216 290 296 286 296 292 283 272 262 252 239 216 234 220 172 153 158 162 163 170 176 174 172 170 172 174 174 175 176 179 180 171 175 190 198 188 191 203 214 205 195 202 204
227 181 262 283 305 331 291 264 251 255 245 184 204 220 161 148 171 178 175 173 180 181 179 177 176 181 182 182 179 183 185 178 172 184 194 194 192 194 208 207 190 200 211 212
188 181 182 255 334 253 248 259 248 186 227 191 164 157 170 183 184 177 172 173 181 180 178 177 176 181 187 184 182 181 176 174 177 185 195 197 187 184 182 183 202 214 211 215
188 172 173 183 244 271 287 301 236 176 302 204 139 150 150 121 90 218 190 174 181 181 175 177 177 178 181 181 181 171 174 179 179 189 197 193 184 178 177 189 216 220 211 238
142 140 163 193 216 247 256 286 344 88 309 260 146 156 154 128 170 235 202 174 166 162 163 166 163 161 170 182 171 165 176 180 190 197 196 190 185 181 188 202 219 222 221 242
347 24 190 216 234 255 256 287 65 127 237 228 173 169 168 191 210 207 168 160 159 159 160 158 155 163 178 175 156 159 170 190 201 190 178 175 181 186 195 202 209 215 225 250
232 208 209 193 216 251 282 52 175 223 226 189 174 174 175 180 148 143 154 155 154 151 153 154 154 165 174 163 154 160 183 199 190 172 172 177 184 193 190 189 219 222 216 248
244 208 213 207 224 252 275 223 212 168 147 186 171 176 156 153 157 156 162 160 158 157 159 158 157 161 170 167 161 169 192 185 167 154 174 186 192 199 194 194 217 238 240 244
280 314 280 283 270 286 304 332 348 139 164 188 173 155 151 158 161 157 162 161 159 161 161 158 154 161 174 178 173 175 175 163 155 164 179 190 190 216 232 223 218 225 241 245
259 299 291 275 283 331 329 317 304 335 63 97 119 140 153 148 155 164 166 165 165 162 161 160 163 172 180 178 177 177 171 156 152 165 178 187 212 226 242 252 243 237 243 231
229 219 225 254 259 258 276 285 306 343 267 168 144 134 149 155 160 161 163 165 159 158 160 162 166 172 174 168 172 179 174 160 156 169 190 200 218 253 246 250 287 284 259 268
Height
1501 1506 1510 1506 1504 1504 1504 1507 1509 1502 1494 1497 1500 1500 1497 1497 1498 1499 1500 1501 1502 1505 1507 1508 1510 1512 1514 1516 1518 1520 1521 1523 1524 1525 1526 1527 1528 1529 1529 1529 1530 1530 1529 1528
1507 1509 1499 1496 1496 1498 1500 1505 1506 1500 1492 1495 1500 1501 1496 1495 1497 1498 1499 1501 1501 1503 1506 1508 1509 1511 1513 1514 1516 1517 1518 1520 1521 1523 1524 1525 1526 1527 1527 1528 1528 1527 1527 1526
1508 1501 1492 1493 1495 1497 1499 1503 1503 1501 1496 1494 1499 1505 1500 1496 1496 1497 1498 1499 1499 1501 1502 1505 1506 1508 1511 1513 1514 1514 1515 1517 1519 1521 1522 1524 1524 1525 1525 1525 1525 1525 1525 1525
1500 1493 1492 1493 1493 1494 1502 1492 1492 1494 1503 1510 1505 1520 1505 1498 1496 1495 1495 1496 1498 1499 1500 1501 1504 1506 1508 1510 1511 1513 1514 1515 1517 1519 1520 1521 1521 1522 1523 1523 1523 1523 1523 1522
1500 1492 1493 1494 1490 1488 1492 1487 1489 1492 1501 1510 1508 1518 1511 1498 1498 1495 1493 1493 1494 1496 1498 1500 1501 1503 1506 1508 1509 1511 1513 1514 1516 1517 1518 1519 1519 1520 1521 1522 1522 1522 1521 1520
1493 1488 1488 1487 1484 1483 1485 1490 1493 1500 1509 1521 1511 1515 1513 1501 1493 1489 1489 1490 1492 1494 1496 1498 1500 1503 1505 1507 1509 1511 1512 1513 1515 1516 1517 1517 1518 1519 1520 1520 1520 1520 1519 1518
1498 1490 1485 1483 1487 1486 1489 1506 1522 1524 1529 1525 1508 1510 1508 1491 1485 1484 1486 1488 1491 1492 1495 1497 1499 1502 1504 1506 1508 1510 1511 1512 1514 1515 1515 1516 1517 1518 1518 1518 1518 1518 1518 1517
1510 1507 1488 1483 1486 1492 1492 1503 1525 1534 1534 1525 1511 1511 1500 1486 1483 1483 1485 1487 1490 1492 1495 1497 1499 1501 1504 1506 1507 1509 1510 1511 1512 1513 1514 1515 1516 1516 1517 1517 1517 1516 1516 1516
1508 1504 1485 1481 1480 1484 1494 1501 1503 1519 1522 1527 1517 1505 1494 1487 1485 1485 1487 1489 1491 1493 1495 1497 1499 1502 1504 1506 1507 1508 1509 1510 1512 1513 1514 1514 1515 1515 1515 1515 1515 1515 1514 1514
1496 1501 1488 1481 1481 1483 1487 1493 1507 1519 1529 1531 1519 1510 1505 1494 1489 1487 1487 1489 1491 1493 1495 1498 1500 1502 1504 1506 1507 1508 1509 1510 1511 1512 1513 1513 1513 1514 1514 1514 1514 1513 1512 1512
1492 1501 1495 1488 1489 1491 1492 1496 1503 1514 1519 1527 1528 1515 1490 1488 1485 1486 1486 1488 1490 1492 1494 1497 1500 1502 1503 1505 1506 1507 1508 1509 1510 1511 1511 1512 1512 1512 1513 1512 1512 1511 1509 1509
1492 1500 1505 1494 1485 1482 1487 1492 1501 1514 1517 1517 1522 1512 1483 1482 1482 1483 1485 1487 1490 1492 1494 1497 1500 1502 1503 1504 1506 1506 1508 1508 1509 1509 1510 1510 1511 1511 1511 1511 1511 1510 1509 1508
1494 1503 1513 1507 1499 1490 1489 1489 1492 1501 1511 1515 1518 1507 1483 1483 1482 1483 1484 1487 1489 1491 1493 1496 1498 1500 1502 1503 1505 1505 1507 1507 1508 1509 1509 1510 1510 1510 1510 1510 1510 1509 1508 1508
1492 1502 1509 1513 1505 1495 1492 1488 1489 1496 1508 1509 1503 1495 1487 1484 1483 1483 1484 1486 1489 1491 1493 1495 1497 1498 1500 1502 1503 1505 1506 1507 1507 1508 1508 1508 1509 1509 1509 1509 1508 1508 1507 1507
1494 1502 1499 1495 1489 1487 1486 1485 1484 1488 1490 1496 1490 1487 1483 1481 1480 1482 1483 1485 1488 1491 1492 1494 1495 1497 1499 1500 1502 1504 1505 1505 1506 1506 1507 1507 1508 1508 1508 1507 1507 1507 1506 1505
1496 1500 1498 1494 1486 1484 1484 1480 1479 1479 1479 1481 1481 1482 1476 1477 1480 1482 1483 1485 1487 1489 1490 1492 1494 1495 1497 1498 1500 1502 1503 1504 1504 1505 1506 1506 1506 1506 1506 1506 1506 1506 1505 1504
1498 1500 1503 1502 1490 1487 1491 1480 1477 1476 1473 1475 1481 1478 1475 1478 1478 1479 1481 1483 1484 1486 1488 1490 1491 1493 1494 1496 1498 1500 1501 1502 1503 1504 1504 1505 1505 1504 1504 1504 1504 1504 1504 1503
1495 1498 1504 1504 1499 1503 1485 1470 1469 1471 1471 1469 1471 1472 1473 1474 1475 1477 1479 1481 1482 1484 1485 1487 1489 1491 1493 1495 1497 1498 1499 1500 1501 1502 1503 1503 1503 1502 1502 1502 1503 1503 1503 1502
1484 1492 1500 1505 1504 1494 1478 1470 1469 1471 1474 1469 1470 1471 1473 1475 1477 1479 1479 1479 1480 1481 1483 1485 1487 1489 1490 1492 1494 1496 1498 1499 1500 1501 1502 1502 1502 1501 1501 1501 1501 1501 1501 1501
1480 1485 1495 1499 1501 1498 1482 1468 1465 1468 1477 1469 1468 1470 1473 1475 1480 1477 1476 1477 1478 1480 1482 1483 1485 1487 1489 1490 1492 1494 1496 1497 1498 1499 1500 1501 1500 1500 1501 1501 1501 1501 1500 1500
1488 1490 1493 1496 1497 1486 1470 1465 1466 1481 1478 1467 1467 1468 1470 1472 1472 1472 1474 1475 1477 1478 1480 1482 1484 1485 1487 1489 1491 1492 1494 1495 1496 1498 1499 1499 1500 1500 1500 1500 1500 1500 1499 1498
1490 1491 1491 1492 1495 1488 1466 1465 1469 1470 1465 1464 1465 1466 1467 1468 1469 1470 1471 1473 1475 1477 1479 1481 1482 1484 1486 1488 1489 1491 1492 1494 1495 1496 1497 1498 1498 1499 1499 1499 1499 1498 1498 1497
1485 1485 1484 1483 1481 1469 1465 1465 1464 1464 1464 1464 1464 1465 1466 1466 1468 1469 1470 1472 1474 1476 1478 1480 1481 1483 1485 1486 1488 1489 1491 1492 1494 1495 1496 1496 1497 1497 1498 1498 1497 1497 1497 1496
1482 1479 1479 1477 1470 1466 1464 1463 1464 1463 1463 1463 1464 1464 1464 1465 1466 1467 1469 1471 1473 1475 1477 1478 1480 1482 1483 1485 1487 1488 1490 1491 1492 1494 1495 1495 1496 1496 1497 1497 1497 1496 1495 1494
1482 1480 1479 1475 1469 1465 1463 1463 1463 1463 1462 1462 1463 1463 1463 1464 1465 1467 1468 1469 1471 1474 1475 1477 1479 1480 1482 1484 1486 1488 1489 1491 1492 1493 1494 1495 1495 1496 1496 1496 1496 1495 1494 1493
1476 1476 1476 1473 1468 1467 1464 1462 1462 1462 1462 1461 1461 1461 1462 1462 1464 1466 1467 1469 1471 1473 1474 1476 1478 1479 1481 1483 1485 1487 1489 1490 1491 1492 1493 1494 1494 1495 1495 1494 1494 1494 1493 1492